This is the latest recevied weather packets stored in our database for station/object DL6MAA-11. If no packets are shown the sender has not sent any weather packets the latest 10 day(s).
| Time | Temp. | Humidity | Pressure | Rain* | Wind** | Luminosity | Snow |
|---|---|---|---|---|---|---|---|
| 1777554740 | 15° C | 29% | 1021.4 hPa | 0 mm | - | 519 W/m² | - |
| 1777554429 | 15° C | 28% | 1021.4 hPa | 0 mm | - | 520 W/m² | - |
| 1777554138 | 15° C | 27% | 1021.4 hPa | 0 mm | - | 534 W/m² | - |
| 1777553846 | 15° C | 28% | 1021.6 hPa | 0 mm | - | 531 W/m² | - |
| 1777552330 | 15° C | 29% | 1021.7 hPa | 0 mm | - | 557 W/m² | - |
| 1777552045 | 14.44° C | 29% | 1021.8 hPa | 0 mm | - | 554 W/m² | - |
| 1777551133 | 14.44° C | 32% | 1021.8 hPa | 0 mm | - | 559 W/m² | - |
| 1777550528 | 14.44° C | 32% | 1021.8 hPa | 0 mm | - | 571 W/m² | - |
| 1777549934 | 14.44° C | 33% | 1021.9 hPa | 0 mm | - | 575 W/m² | - |
| 1777549348 | 13.89° C | 32% | 1021.9 hPa | 0 mm | - | 568 W/m² | - |
| 1777549031 | 14.44° C | 35% | 1021.9 hPa | 0 mm | - | 575 W/m² | - |
| 1777548433 | 13.89° C | 34% | 1021.9 hPa | 0 mm | - | 573 W/m² | - |
| 1777547840 | 13.89° C | 36% | 1021.9 hPa | 0 mm | - | 571 W/m² | - |
| 1777547542 | 13.33° C | 35% | 1022 hPa | 0 mm | - | 570 W/m² | - |
| 1777547232 | 13.33° C | 35% | 1022 hPa | 0 mm | - | 570 W/m² | - |
| 1777546334 | 13.33° C | 34% | 1021.9 hPa | 0 mm | - | 568 W/m² | - |
| 1777545436 | 13.33° C | 35% | 1022 hPa | 0 mm | - | 554 W/m² | - |
| 1777545138 | 13.33° C | 35% | 1022 hPa | 0 mm | - | 552 W/m² | - |
| 1777544837 | 13.33° C | 37% | 1022 hPa | 0 mm | - | 552 W/m² | - |
| 1777544541 | 13.33° C | 37% | 1022 hPa | 0 mm | - | 547 W/m² | - |
| 1777544246 | 12.78° C | 37% | 1022 hPa | 0 mm | - | 543 W/m² | - |
| 1777543931 | 13.33° C | 38% | 1022.8 hPa | 0 mm | - | 540 W/m² | - |
| 1777543634 | 12.78° C | 38% | 1022.8 hPa | 0 mm | - | 540 W/m² | - |
| 1777543027 | 12.78° C | 38% | 1022.3 hPa | 0 mm | - | 513 W/m² | - |
| 1777542437 | 12.78° C | 39% | 1022.3 hPa | 0 mm | - | 97 W/m² | - |
* Rain since midnight (hover to see other rain measurements)
** Current wind speed in m/s (hover to see current wind gust speed)